sat.trackr.live / text

‹ back to catalog

STARLINK-11620 [DTC]

NORAD 63271 · 2025-053G

PAYLOAD ACTIVE UNKNOWN

§ Identity

Operator
Country
US
Launch date
2025-03-15
Launch site
AFETR
Launch vehicle
Mass (kg)
RCS (m²)

Purposes: comms

External: N2YO · Heavens-Above · Gunter

§ Orbital elements

Epoch: 2026-05-25T01:05:06.392832Z

Period
91.67 min
Inclination
43.0030°
Eccentricity
0.0003878
Mean motion
15.70931467 rev/d
Perigee alt
353.6 km
Apogee alt
358.8 km
Semi-major
6,734.4 km
B*
1.3435e-3
RAAN
12.3965°
Arg perigee
272.4578°
Mean anomaly
87.5845°
Rev number
6,967

§ Raw data

STARLINK-11620 [DTC]1 63271U 25053G   26145.04521288  .00176369  00000+0  13435-2 0  99912 63271  43.0030  12.3965 0003878 272.4578  87.5845 15.70931467 69676

JSON: /api/v1/satellites/63271 · /tle

For live sub-satellite position, see the globe view (requires WebGL).

§ Visibility from observer

Set your observer location to see the next 7 days of passes ≥ 10°. The values pass through the URL so the page stays shareable.

No JS? Fill the form by hand. The geolocation button needs JavaScript.